Flag for Switzerland Weather past 2 weeks in Locarno, Ticino, Switzerland

Now
40 °F

Chilly.


Feels Like: 40 °F
Forecast: 33 / 42 °F
Wind: 1 mph from Northeast

Location: Locarno-Monti

Current Time: Dec 18, 2014 at 5:28:17 AM

Latest Report: Dec 18, 2014 at 4:00 AM


Visibility: N/A

Pressure: 30.03 "Hg

Humidity: 80%

Dew point: 34 °F

Location of LocarnoLocation

Historic Weather in Locarno — Graph

°F

Locarno temperature yesterday

Maximum temperature yesterday: 48 °F (at 6:00 PM)
Minimum temperature yesterday: 42 °F (at 12:00 AM)
Average temperature yesterday: 44 °F

Past Weeks' High & Low Weather Summary

 TemperatureHumidityPressure
High54 °F (Dec 9, 2:00 PM)100% (Dec 3, 5:00 AM)30.30 "Hg (Dec 3, 5:00 AM)
Low36 °F (Dec 11, 5:00 AM)27% (Dec 9, 3:00 PM)29.81 "Hg (Dec 3, 3:00 AM)
Average45 °F78%30.06 "Hg
* Reported Dec 3 3:00 AM — Dec 18 3:00 AM, Locarno, Weather by CustomWeather, © 2014

Note: Actual official high and low records may vary slightly from our data, if they occured in-between our weather recording intervals... More about our weather records

Advertising

Locarno weather history for previous 24 hours

 ConditionsComfort  
Time TempWeatherWind HumidityBarometerVisibility
3:00 AM
Dec 18
40 °FQuite cool.1 mph77%30.03 "HgN/A
2:00 AM41 °FQuite cool.2 mph77%30.02 "HgN/A
1:00 AM41 °FQuite cool.1 mph77%30.01 "HgN/A
12:00 AM41 °FQuite cool.1 mph80%30.02 "HgN/A
11:00 PM
Dec 17
44 °FQuite cool.3 mph70%30.01 "HgN/A
10:00 PM43 °FQuite cool.2 mph72%30.01 "HgN/A
9:00 PM44 °FQuite cool.3 mph73%30.00 "HgN/A
8:00 PM45 °FQuite cool.3 mph73%29.99 "HgN/A
7:00 PM46 °FOvercast.2 mph67%29.97 "Hg25 mi
6:00 PM48 °FCool.6 mph58%29.96 "HgN/A
5:00 PM46 °FCool.2 mph70%29.94 "HgN/A
4:00 PM46 °FOvercast.2 mph69%29.92 "Hg25 mi
3:00 PM47 °FCool.1 mph66%29.92 "HgN/A
2:00 PM46 °FCool.No wind78%29.94 "HgN/A
1:00 PM46 °FOvercast.No wind70%29.96 "Hg25 mi
12:00 PM46 °FCool.2 mph65%29.97 "HgN/A
11:00 AM44 °FQuite cool.1 mph68%29.99 "HgN/A
10:00 AM44 °FOvercast.1 mph69%29.99 "Hg25 mi
9:00 AM44 °FQuite cool.3 mph67%29.97 "HgN/A
8:00 AM42 °FQuite cool.3 mph69%29.96 "HgN/A
7:00 AM44 °FOvercast.2 mph63%29.93 "Hg25 mi
6:00 AM44 °FQuite cool.3 mph65%29.91 "HgN/A
5:00 AM43 °FQuite cool.2 mph69%29.90 "HgN/A
Weather by CustomWeather, © 2014

See weather overviewHow to use our weather pages